Regional Weather Roundup
Issued by NWS Wilmington, NC

Home | Current Version | Previous Version | Text Only | Print | Product List | Glossary On
Versions: 1 2 3 4 5 6 7 8 9 10 11 12 13 14 15 16 17 18 19 20 21 22 23 24 25 26 27 28 29 30 31 32 33 34 35 36 37 38 39 40 41 42 43 44 45 46 47
000
ASUS42 KILM 221210
RWRILM
RWRILM
REGIONAL HOURLY WEATHER ROUNDUP
NATIONAL WEATHER SERVICE WILMINGTON NC
800 AM EDT WED OCT 22 2014

NOTE: "FAIR" INDICATES FEW OR NO CLOUDS BELOW 12,000 FEET WITH NO
SIGNIFICANT WEATHER AND/OR OBSTRUCTIONS TO VISIBILITY.

...............WFO WILMINGTON COUNTY WARNING AREA...............

......COASTAL NC AND SC COUNTIES......

CITY           SKY/WX    TMP DP  RH WIND       PRES   REMARKS
WILMINGTON     CLEAR     51  43  74 NW8       29.95R
SOUTHPORT      CLEAR     50  41  72 N9        29.95R
N MYRTLE BEACH CLEAR     51  41  68 NW7       29.98R
MYRTLE BEACH   CLEAR     54  39  58 N12       29.98R

......INLAND NC AND SC COUNTIES.......

CITY           SKY/WX    TMP DP  RH WIND       PRES   REMARKS
LUMBERTON      CLEAR     49  41  74 NW7       29.98R
ELIZABETHTOWN  CLEAR     50  42  73 NW7       29.97R
WHITEVILLE     CLEAR     50  42  73 CALM      29.98R
FLORENCE       CLEAR     48  40  73 NW6       30.01R
DARLINGTON     CLEAR     46  37  71 NW5       30.03R

....................REST OF NORTH CAROLINA......................

.........EASTERN NC.........

CITY           SKY/WX    TMP DP  RH WIND       PRES   REMARKS
CAPE HATTERAS  PTCLDY    57  53  86 NW13G21   29.85R
JACKSONVILLE   CLEAR     50  43  76 SW3       29.95R
MOREHEAD CITY  CLEAR     55  48  77 NW12      29.91R
KENANSVILLE    CLEAR     48  42  80 W3        29.96R
NEW BERN       CLEAR     53  45  74 W7        29.93R
ELIZABETH CITY CLOUDY    55  50  83 W14G23    29.85R

.........CENTRAL NC.........

CITY           SKY/WX    TMP DP  RH WIND       PRES   REMARKS
RALEIGH DURHAM PTCLDY    50  38  63 VRB3      29.97R
ROCKY MOUNT    CLEAR     50  44  80 NW9       29.93R
ROANOKE RAPIDS NOT AVBL
FAYETTEVILLE   CLEAR     52  40  63 NW12      29.98R
HOFFMAN        CLEAR     46  41  81 N5        30.01R

.........WESTERN NC.........

CITY           SKY/WX    TMP DP  RH WIND       PRES   REMARKS
CHARLOTTE      PTCLDY    47  36  65 NW7       30.04R
GREENSBORO     PTCLDY    43  38  82 W3        30.01R
HICKORY        NOT AVBL
BOONE          NOT AVBL
ASHEVILLE      NOT AVBL

.....................REST OF SOUTH CAROLINA.....................

.........EASTERN SC.........

CITY           SKY/WX    TMP DP  RH WIND       PRES   REMARKS
CHARLESTON     CLEAR     55  42  61 N8        30.02R
BEAUFORT MCAS  CLEAR     54  45  71 N9        30.03R
HILTON HEAD    NOT AVBL

.........CENTRAL SC.........

CITY           SKY/WX    TMP DP  RH WIND       PRES   REMARKS
COLUMBIA       CLEAR     45  40  82 CALM      30.04R
ORANGEBURG     CLEAR     48  42  80 N5        30.04R
SUMTER SHAW    CLEAR     47  42  80 NW3       30.02R

.........WESTERN SC.........

CITY           SKY/WX    TMP DP  RH WIND       PRES   REMARKS
GREENVILLE     NOT AVBL
ROCK HILL      CLEAR     43  37  79 NW5       30.05R
ANDERSON       CLEAR     40  39  97 CALM      30.07R
CLEMSON        NOT AVBL
GREENWOOD      CLEAR     40  38  93 CALM      30.08R


...................COASTAL AND OFFSHORE REPORTS..................

................LOCAL PIERS AND NC RESERVE................


STATION/POSITION TIME  SKY/WX   TEMP    WIND        PRES    VSBY
                                AIR SEA DIR/SP/G
                 (UTC)          (F)     (DEG/KT/KT) (MB)    (MI)
JOHNY MRCER PIER 1200            53 74  310/ 10/ 13 1013.4R
NC RESRV MASNBRO 1100            53     190/  2     1013.0R
OCEAN CREST PIER 1200            52 72  300/ 10/ 14 1013.1R
SPRINGMAID  PIER 1200            53 71  330/  8/ 12 1015.2R


................COASTAL AND OFFSHORE BUOYS................


STATION/POSITION TIME  SKY/WX   TEMP    WIND        PRES    VSBY
                                AIR SEA DIR/SP/G
                 (UTC)          (F)     (DEG/KT/KT) (MB)    (MI)
DIMNDSHOAL 41025 1200            62     300/ 21/ 25 1009.9R
WVE H/P(F/S)=  4/ 4 WND WVE H/P(F/S)=  3/ 4 SWL H/P/D(F/S/D)=  2/150/10

CAPE LOOKOUT     1100            58     340/ 20/ 24 1011.5R
ONSLOW BAY 41036 1200            60 76  340/ 19/ 23 1011.9R
WVE H/P(F/S)=  4/ 5 WND WVE H/P(F/S)=  5/ 5 SWL H/P/D(F/S/D)=  2/130/11

5 WRITEBCH 41038 1200            53 73  340/ 17/ 21   N/A
MASONBORO  41110 1200               73                N/A
WVE H/P(F/S)=  2/ 3 WND WVE H/P(F/S)=  2/ 3

WILM HARBR 41108 1200               73                N/A
WVE H/P(F/S)=  3/ 4 WND WVE H/P(F/S)=  3/ 4

27WRITEBCH 41037 1100            57 75  350/ 19/ 21 1012.1R
FRYING PAN 41013 1200            60 75  340/ 19/ 21 1013.9R
WVE H/P(F/S)=  5/ 6 WND WVE H/P(F/S)=  5/ 6

SUNST NRSH 41024 1100            56     340/ 17/ 19 1013.4R
CAPRS NRSH 41029 1100            58     360/ 17/ 21   N/A
EDISTO     41004 1200            64 79  350/ 19/ 23 1014.2R
WVE H/P(F/S)=  5/ 6 WND WVE H/P(F/S)=  5/ 6 SWL H/P/D(F/S/D)=  2/10



..........OFFSHORE BUOYS BEYOND 100 NM OFFSHORE...........
.....IN A TRIANGLE---HAT TO BERMUDA TO BAHAMAS TO HAT.....


STATION/POSITION TIME  SKY/WX   TEMP    WIND        PRES    VSBY
                                AIR SEA DIR/SP/G
                 (UTC)          (F)     (DEG/KT/KT) (MB)    (MI)
150E HAT   41001 NOT AVBL
W BERMUDA  41048 1055            79 79  180/ 10/ 12 1011.4R
WVE H/P(F/S)=  4/ 5 WND WVE H/P(F/S)=  3/ 3 SWL H/P/D(F/S/D)=  3/190/ 5

ATLANTIC S 41049 1133            80 81  150/  6/  8 1016.5R
WVE H/P(F/S)=  5/10 WND WVE H/P(F/S)=  2/ 4 SWL H/P/D(F/S/D)=  5/ 20/10

E BAHAMAS  41046 1117            82 83  150/  6/  8 1015.2R
WVE H/P(F/S)=  4/ 9 WND WVE H/P(F/S)=  2/ 3 SWL H/P/D(F/S/D)=  3/ 20/ 9

NE BAHAMAS 41047 1133            80 82  190/  8/ 10 1014.4R
WVE H/P(F/S)=  3/ 8 SWL H/P/D(F/S/D)=  3/ 30/ 8

120E CANVRL41010 1200            77 80  220/ 10/ 10 1013.7R
WVE H/P(F/S)=  2/ 8 WND WVE H/P(F/S)=  2/ 4 SWL H/P/D(F/S/D)=  2/ 70/ 8


END



USA.gov is the U.S. government's official web portal to all federal, state and local government web resources and services.